Flag for Switzerland Weather past 2 weeks in Bülach, Zurich, Switzerland

Now
68 °F

Passing clouds.


Feels Like: 68 °F
Forecast: 66 / 88 °F
Wind: 2 mph from Northwest

Location: Zurich-Kloten

Current Time: Jul 5, 2015 at 2:43:28 AM

Latest Report: Jul 5, 2015 at 2:00 AM


Visibility: 9 mi

Pressure: 30.09 "Hg

Humidity: 87%

Dew point: 64 °F

Location of BülachLocation

Historic Weather in Bülach — Graph

°F

Bülach temperature yesterday

Maximum temperature yesterday: 94 °F (at 6:00 PM)
Minimum temperature yesterday: 64 °F (at 6:00 AM)
Average temperature yesterday: 81 °F

Past Weeks' High & Low Weather Summary

 TemperatureHumidityPressure
High94 °F (Jul 4, 6:00 PM)96% (Jun 24, 6:00 AM)30.25 "Hg (Jun 24, 6:00 AM)
Low44 °F (Jun 24, 5:00 AM)25% (Jun 25, 7:00 PM)29.74 "Hg (Jun 22, 10:00 PM)
Average67 °F65%30.10 "Hg
* Reported Jun 20 1:00 AM — Jul 5 1:00 AM, Bülach, Weather by CustomWeather, © 2015

Note: Actual official high and low records may vary slightly from our data, if they occured in-between our weather recording intervals... More about our weather records

Advertising

Bülach weather history for previous 24 hours

 ConditionsComfort  
Time TempWeatherWind HumidityBarometerVisibility
1:00 AM
Sun, Jul 5
71 °FMild.2 mph81%30.10 "HgN/A
12:00 AM73 °FMild.1 mph74%30.09 "HgN/A
10:00 PM
Sat, Jul 4
79 °FWarm.2 mph63%30.07 "HgN/A
9:00 PM87 °FWarm.3 mph44%30.05 "HgN/A
8:00 PM92 °FScattered clouds.3 mph33%30.03 "Hg16 mi
7:00 PM94 °FExtremely hot.2 mph26%30.03 "HgN/A
6:00 PM94 °FExtremely hot.3 mph27%30.03 "HgN/A
5:00 PM94 °FScattered clouds.3 mph31%30.05 "Hg16 mi
4:00 PM94 °FExtremely hot.6 mph30%30.06 "HgN/A
3:00 PM94 °FExtremely hot.7 mph30%30.07 "HgN/A
2:00 PM92 °FScattered clouds.8 mph33%30.09 "Hg12 mi
1:00 PM91 °FHot.8 mph34%30.11 "HgN/A
12:00 PM87 °FWarm.6 mph43%30.13 "HgN/A
11:00 AM85 °FScattered clouds.7 mph51%30.13 "Hg12 mi
10:00 AM83 °FWarm.5 mph55%30.15 "HgN/A
9:00 AM78 °FWarm.1 mph71%30.16 "HgN/A
8:00 AM72 °FPassing clouds.1 mph74%30.18 "Hg12 mi
7:00 AM67 °FMild.1 mph89%30.19 "HgN/A
6:00 AM64 °FMild.1 mph90%30.19 "HgN/A
5:00 AM65 °FPassing clouds.3 mph89%30.17 "Hg12 mi
4:00 AM67 °FMild.2 mph84%30.16 "HgN/A
3:00 AM68 °FMild.2 mph82%30.16 "HgN/A
2:00 AM69 °FClear.3 mph80%30.16 "Hg12 mi
Weather by CustomWeather, © 2015

See weather overviewHow to use our weather pages